Weather History for KC29 - September, 2013

Change the Weather History Date:

Saturday, September 14, 2013

  Actual Average (KMSN) Record (KMSN)
Temperature  
Mean Temperature 56 °F 62 °F  
Max Temperature 73 °F 73 °F 96 °F (1939)
Min Temperature 39 °F 51 °F 32 °F (1963)
Degree Days  
Heating Degree Days 9 5  
Month to date heating degree days 46  
Since 1 July heating degree days 83  
Cooling Degree Days 0 2  
Month to date cooling degree days 36  
Year to date cooling degree days 549  
Growing Degree Days 6 (Base 50)    
Moisture  
Dew Point 40 °F    
Average Humidity 58    
Maximum Humidity 96    
Minimum Humidity 26    
Precipitation  
Precipitation 0.00 in 0.10 in 2.63 in (1914)
Month to date precipitation 1.54  
Year to date precipitation 26.36  
Snow  
Snow 0.00 in 0.00 in 0.00 in ()
Month to date snowfall 0.0  
Since 1 July snowfall 0.0  
Since 1 September snowfall 0.0  
Snow Depth -    
Sea Level Pressure  
Sea Level Pressure 30.10 in    
Wind  
Wind Speed 3 mph (SSW)    
Max Wind Speed 12 mph    
Max Gust Speed 20 mph    
Visibility 10 miles    
Events      
T = Trace of Precipitation, MM = Missing Value Source: NWS Daily Summary

Daily Weather History Graph

Daily Weather History Graph

Search for Another Location

Airport or City:

Trip Planner

Search our weather history database for the weather conditions in past years. The results will help you decide how hot, cold, wet, or windy it might be!

Date:

Astronomy

Sep. 14, 2013 Rise Set
Actual Time 6:36 AM CDT 7:09 PM CDT
Civil Twilight 6:08 AM CDT 7:37 PM CDT
Nautical Twilight 5:34 AM CDT 8:11 PM CDT
Astronomical Twilight 4:59 AM CDT 8:46 PM CDT
Moon 3:56 PM CDT (9/14) 1:02 AM CDT (9/14)
Length of Visible Light 13h 29m
Length of Day
12h 32m
Waxing Gibbous, 72% of the Moon is Illuminated
Sep 14
Waxing Gibbous
Sep 19
Full
Sep 26
Last Quarter
Oct 4
New
Oct 11
First Quarter

Hourly Weather History & Observations

Time (CDT) Temp. Dew Point Humidity Pressure Visibility Wind Dir Wind Speed Gust Speed Precip Events Conditions
12:15 AM 43.9 °F 41.7 °F 92% 30.17 in 10.0 mi Calm Calm - N/A   Clear
12:35 AM 42.8 °F 40.5 °F 91% 30.16 in 10.0 mi Calm Calm - N/A   Clear
12:55 AM 42.4 °F 40.5 °F 93% 30.16 in 10.0 mi Calm Calm - N/A   Clear
1:15 AM 42.8 °F 40.8 °F 93% 30.16 in 10.0 mi Calm Calm - N/A   Clear
1:35 AM 42.4 °F 40.6 °F 93% 30.17 in 10.0 mi Calm Calm - N/A   Clear
1:55 AM 41.9 °F 40.1 °F 93% 30.17 in 10.0 mi Calm Calm - N/A   Clear
2:15 AM 41.4 °F 39.7 °F 94% 30.16 in 10.0 mi Calm Calm - N/A   Clear
2:35 AM 41.4 °F 39.7 °F 94% 30.15 in 10.0 mi Calm Calm - N/A   Clear
2:55 AM 42.1 °F 40.3 °F 93% 30.16 in 10.0 mi Calm Calm - N/A   Clear
3:15 AM 41.5 °F 39.9 °F 94% 30.16 in 10.0 mi Calm Calm - N/A   Clear
3:35 AM 41.7 °F 40.1 °F 94% 30.16 in 10.0 mi Calm Calm - N/A   Clear
3:55 AM 41.2 °F 39.7 °F 95% 30.16 in 10.0 mi Calm Calm - N/A   Clear
4:15 AM 40.8 °F 39.4 °F 95% 30.16 in 10.0 mi Calm Calm - N/A   Clear
4:35 AM 41.5 °F 40.3 °F 95% 30.17 in 10.0 mi Calm Calm - N/A   Clear
4:55 AM 40.6 °F 39.4 °F 95% 30.17 in 10.0 mi Calm Calm - N/A   Clear
5:15 AM 39.2 °F 37.8 °F 95% 30.17 in 10.0 mi Calm Calm - N/A   Clear
5:35 AM 39.7 °F 38.5 °F 95% 30.17 in 10.0 mi Calm Calm - N/A   Clear
5:55 AM 40.5 °F 39.2 °F 95% 30.17 in 10.0 mi Calm Calm - N/A   Clear
6:15 AM 39.9 °F 38.8 °F 96% 30.17 in 10.0 mi Calm Calm - N/A   Clear
6:35 AM 40.3 °F 39.2 °F 96% 30.17 in 10.0 mi Calm Calm - N/A   Clear
6:55 AM 40.3 °F 39.0 °F 95% 30.17 in 10.0 mi Calm Calm - N/A   Clear
7:15 AM 41.2 °F 40.1 °F 96% 30.17 in 10.0 mi Calm Calm - N/A   Clear
7:35 AM 45.5 °F 44.2 °F 95% 30.17 in 10.0 mi Calm Calm - N/A   Clear
7:55 AM 50.0 °F 47.5 °F 91% 30.18 in 10.0 mi Calm Calm - N/A   Clear
8:15 AM 53.6 °F 47.1 °F 79% 30.18 in 10.0 mi Calm Calm - N/A   Clear
8:35 AM 56.3 °F 46.0 °F 68% 30.18 in 10.0 mi SW 6.9 mph - N/A   Clear
8:55 AM 57.4 °F 45.9 °F 65% 30.18 in 10.0 mi SW 6.9 mph - N/A   Clear
9:15 AM 59.4 °F 45.5 °F 60% 30.18 in 10.0 mi SW 8.1 mph - N/A   Clear
9:35 AM 61.3 °F 46.0 °F 57% 30.18 in 10.0 mi WSW 8.1 mph - N/A   Clear
9:55 AM 62.6 °F 45.0 °F 52% 30.17 in 10.0 mi WSW 9.2 mph - N/A   Clear
10:15 AM 63.1 °F 43.9 °F 49% 30.17 in 10.0 mi SW 9.2 mph - N/A   Clear
10:35 AM 64.2 °F 42.4 °F 45% 30.17 in 10.0 mi SW 10.4 mph - N/A   Clear
10:55 AM 65.7 °F 42.1 °F 42% 30.17 in 10.0 mi SSW 9.2 mph - N/A   Clear
11:15 AM 66.6 °F 41.0 °F 39% 30.16 in 10.0 mi SW 8.1 mph - N/A   Clear
11:35 AM 67.6 °F 39.2 °F 35% 30.15 in 10.0 mi West 8.1 mph - N/A   Clear
11:55 AM 68.0 °F 38.3 °F 34% 30.14 in 10.0 mi WSW 6.9 mph - N/A   Clear
12:15 PM 69.6 °F 38.3 °F 32% 30.13 in 10.0 mi SW 6.9 mph 10.4 mph N/A   Clear
12:35 PM 69.4 °F 37.6 °F 31% 30.13 in 10.0 mi SW 6.9 mph - N/A   Clear
12:55 PM 69.4 °F 38.1 °F 32% 30.12 in 10.0 mi WSW 5.8 mph 19.6 mph N/A   Clear
1:15 PM 70.9 °F 37.8 °F 30% 30.11 in 10.0 mi West 9.2 mph - N/A   Clear
1:35 PM 70.5 °F 37.9 °F 30% 30.10 in 10.0 mi WSW 9.2 mph - N/A   Clear
1:55 PM 72.5 °F 37.4 °F 28% 30.09 in 10.0 mi WSW 9.2 mph - N/A   Clear
2:15 PM 72.9 °F 38.5 °F 29% 30.08 in 10.0 mi SSW 8.1 mph - N/A   Clear
2:35 PM 72.5 °F 36.1 °F 27% 30.07 in 10.0 mi WSW 10.4 mph - N/A   Clear
2:55 PM 70.9 °F 36.7 °F 29% 30.07 in 10.0 mi SW 8.1 mph 16.1 mph N/A   Clear
3:15 PM 71.6 °F 39.2 °F 31% 30.06 in 10.0 mi South 8.1 mph - N/A   Clear
3:35 PM 71.6 °F 37.9 °F 29% 30.06 in 10.0 mi SW 11.5 mph - N/A   Clear
3:55 PM 73.8 °F 37.2 °F 27% 30.05 in 10.0 mi SW 8.1 mph - N/A   Clear
4:15 PM 72.1 °F 37.2 °F 28% 30.04 in 10.0 mi SSW 6.9 mph - N/A   Clear
4:35 PM 72.7 °F 35.4 °F 26% 30.04 in 10.0 mi SSW 10.4 mph 17.3 mph N/A   Clear
4:55 PM 72.5 °F 37.2 °F 28% 30.04 in 10.0 mi South 8.1 mph - N/A   Clear
5:15 PM 72.5 °F 38.1 °F 29% 30.04 in 10.0 mi SSW 10.4 mph - N/A   Clear
5:35 PM 71.6 °F 37.6 °F 29% 30.03 in 10.0 mi SSW 8.1 mph - N/A   Clear
5:55 PM 71.2 °F 38.8 °F 31% 30.03 in 10.0 mi South 9.2 mph - N/A   Clear
6:15 PM 68.4 °F 40.5 °F 36% 30.03 in 10.0 mi SSW 6.9 mph - N/A   Clear
6:35 PM 67.5 °F 40.5 °F 37% 30.02 in 10.0 mi South 5.8 mph - N/A   Clear
6:55 PM 67.1 °F 39.2 °F 36% 30.02 in 10.0 mi SSW 6.9 mph - N/A   Clear
7:15 PM 66.4 °F 38.7 °F 36% 30.02 in 10.0 mi SW 5.8 mph - N/A   Clear
7:35 PM 66.0 °F 38.7 °F 37% 30.02 in 10.0 mi SSW 3.5 mph - N/A   Clear
7:55 PM 64.4 °F 39.6 °F 40% 30.02 in 10.0 mi SSW 3.5 mph - N/A   Clear
8:15 PM 64.4 °F 40.1 °F 41% 30.02 in 10.0 mi South 3.5 mph - N/A   Clear
8:35 PM 64.4 °F 40.6 °F 42% 30.02 in 10.0 mi Calm Calm - N/A   Clear
8:55 PM 62.1 °F 42.6 °F 49% 30.01 in 10.0 mi SSE 3.5 mph - N/A   Clear
9:15 PM 63.5 °F 41.9 °F 45% 30.02 in 10.0 mi South 3.5 mph - N/A   Clear
9:35 PM 63.9 °F 41.9 °F 45% 30.01 in 10.0 mi South 5.8 mph - N/A   Clear
9:55 PM 64.4 °F 41.5 °F 43% 30.00 in 10.0 mi SSE 8.1 mph - N/A   Clear
10:15 PM 64.2 °F 41.4 °F 43% 29.99 in 10.0 mi South 10.4 mph - N/A   Clear
10:35 PM 64.2 °F 41.4 °F 43% 30.00 in 10.0 mi South 8.1 mph - N/A   Scattered Clouds
10:55 PM 63.5 °F 41.7 °F 45% 30.01 in 10.0 mi South 5.8 mph - N/A   Mostly Cloudy
11:15 PM 63.5 °F 41.0 °F 44% 30.01 in 10.0 mi South 6.9 mph - N/A   Overcast
11:35 PM 63.0 °F 41.4 °F 45% 30.01 in 10.0 mi South 4.6 mph - N/A   Overcast
11:55 PM 62.4 °F 41.7 °F 47% 30.01 in 10.0 mi SSW 5.8 mph - N/A   Overcast